Tracking 25995 objects as of 20-Aug-2022
HD Live streaming from Space Station
objects crossing your sky now

STARLINK-3083

Track STARLINK-3083 now!
10-day predictions
STARLINK-3083 is classified as:


NORAD ID: 49158
Int'l Code: 2021-082AE
Perigee: 582.1 km
Apogee: 586.3 km
Inclination: 70.0 °
Period: 96.2 minutes
Semi major axis: 6955 km
RCS: Unknown
Launch date: September 14, 2021
Source: United States (US)
Launch site: AIR FORCE WESTERN TEST RANGE (AFWTR)
aabbcc
Your satellite tracking list
Your tracking list is empty




NASA's NSSDC Master Catalog

Two Line Element Set (TLE):
1 49158U 21082AE  22231.49452560  .00002049  00000-0  18696-3 0  9993
2 49158  70.0019 307.6087 0003079 257.9724 102.1089 14.96714517 53118
Source of the keplerian elements: AFSPC